Hourly Weather Rublevka

Today, 23 April, Friday

Time Temperature Precipitation Wind Pressure Humidity
00:00 0°C° 0.6 mm 4 mps 752 mmHg 97%
01:00 +1°C° 0.6 mm 4 mps 752 mmHg 97%
02:00 +1°C° 0.1 mm 4 mps 752 mmHg 97%
03:00 +2°C° 0.1 mm 3 mps 752 mmHg 97%
04:00 +2°C° 0.1 mm 3 mps 752 mmHg 97%
05:00 +3°C° 0 mm 2 mps 752 mmHg 96%
06:00 +4°C° 0 mm 2 mps 752 mmHg 96%
07:00 +4°C° 0 mm 2 mps 752 mmHg 95%
08:00 +5°C° 0 mm 2 mps 752 mmHg 88%
09:00 +6°C° 0 mm 2 mps 751 mmHg 82%
10:00 +8°C° 0 mm 3 mps 751 mmHg 76%
11:00 +9°C° 0 mm 3 mps 751 mmHg 72%
12:00 +9°C° 0 mm 3 mps 751 mmHg 69%
13:00 +10°C° 0 mm 4 mps 751 mmHg 65%
14:00 +11°C° 0 mm 3 mps 750 mmHg 62%
15:00 +11°C° 0 mm 3 mps 750 mmHg 59%
16:00 +12°C° 0 mm 3 mps 749 mmHg 56%
17:00 +11°C° 0 mm 4 mps 749 mmHg 61%
18:00 +10°C° 0 mm 4 mps 749 mmHg 67%
19:00 +10°C° 0 mm 4 mps 749 mmHg 73%
20:00 +8°C° 0.1 mm 4 mps 748 mmHg 78%
21:00 +7°C° 0.1 mm 4 mps 748 mmHg 82%
22:00 +6°C° 0.1 mm 4 mps 748 mmHg 87%
23:00 +6°C° 0.3 mm 4 mps 747 mmHg 88%

Tomorrow, 24 April, Saturday

Time Temperature Precipitation Wind Pressure Humidity
00:00 +6°C° 0.3 mm 4 mps 747 mmHg 90%
01:00 +6°C° 0.3 mm 4 mps 746 mmHg 91%
02:00 +6°C° 0.6 mm 4 mps 746 mmHg 92%
03:00 +6°C° 0.6 mm 4 mps 745 mmHg 92%
04:00 +6°C° 0.6 mm 5 mps 744 mmHg 93%
05:00 +6°C° 0.7 mm 5 mps 744 mmHg 91%
06:00 +6°C° 0.7 mm 4 mps 743 mmHg 89%
07:00 +6°C° 0.7 mm 4 mps 743 mmHg 87%
08:00 +6°C° 0.2 mm 5 mps 742 mmHg 86%
09:00 +6°C° 0.2 mm 5 mps 742 mmHg 86%
10:00 +5°C° 0.2 mm 6 mps 742 mmHg 85%
11:00 +6°C° 0.2 mm 5 mps 741 mmHg 85%
12:00 +6°C° 0.2 mm 5 mps 741 mmHg 85%
13:00 +5°C° 0.2 mm 5 mps 741 mmHg 85%
14:00 +5°C° 0.2 mm 4 mps 740 mmHg 86%
15:00 +5°C° 0.2 mm 4 mps 740 mmHg 87%
16:00 +5°C° 0.2 mm 3 mps 740 mmHg 88%
17:00 +5°C° 0.2 mm 3 mps 739 mmHg 90%
18:00 +4°C° 0.2 mm 3 mps 739 mmHg 92%
19:00 +5°C° 0.2 mm 2 mps 739 mmHg 94%
20:00 +5°C° 0.1 mm 2 mps 739 mmHg 93%
21:00 +5°C° 0.1 mm 2 mps 739 mmHg 93%
22:00 +5°C° 0.1 mm 2 mps 739 mmHg 93%
23:00 +5°C° 0 mm 2 mps 739 mmHg 93%

Day after tomorrow, 25 April, Sunday

Time Temperature Precipitation Wind Pressure Humidity
00:00 +5°C° 0 mm 2 mps 739 mmHg 93%
01:00 +5°C° 0 mm 2 mps 739 mmHg 93%
02:00 +4°C° 0 mm 3 mps 739 mmHg 93%
03:00 +4°C° 0 mm 3 mps 739 mmHg 93%
04:00 +4°C° 0 mm 3 mps 738 mmHg 94%
05:00 +4°C° 0 mm 4 mps 738 mmHg 92%
06:00 +3°C° 0 mm 5 mps 737 mmHg 91%
07:00 +4°C° 0 mm 6 mps 737 mmHg 89%
08:00 +4°C° 1.1 mm 6 mps 737 mmHg 87%
09:00 +5°C° 1.1 mm 6 mps 737 mmHg 85%
10:00 +5°C° 1.1 mm 7 mps 737 mmHg 83%
11:00 +6°C° 0.2 mm 8 mps 737 mmHg 74%
12:00 +6°C° 0.2 mm 8 mps 737 mmHg 64%
13:00 +7°C° 0.2 mm 9 mps 738 mmHg 55%
14:00 +7°C° 0.2 mm 9 mps 738 mmHg 57%
15:00 +6°C° 0.2 mm 9 mps 739 mmHg 60%
16:00 +6°C° 0.2 mm 9 mps 739 mmHg 62%
17:00 +5°C° 0 mm 8 mps 740 mmHg 67%
18:00 +4°C° 0 mm 8 mps 740 mmHg 73%
19:00 +3°C° 0 mm 7 mps 741 mmHg 78%
20:00 +3°C° 0 mm 7 mps 741 mmHg 77%
21:00 +3°C° 0 mm 6 mps 742 mmHg 76%
22:00 +3°C° 0 mm 6 mps 742 mmHg 75%
23:00 +2°C° 0 mm 6 mps 742 mmHg 76%

26 April, Monday

Time Temperature Precipitation Wind Pressure Humidity
00:00 +2°C° 0 mm 5 mps 742 mmHg 78%
01:00 +1°C° 0 mm 5 mps 742 mmHg 79%
02:00 +1°C° 0 mm 5 mps 743 mmHg 82%
03:00 0°C° 0 mm 5 mps 743 mmHg 84%
04:00 0°C° 0 mm 5 mps 743 mmHg 86%
05:00 +1°C° 0 mm 5 mps 744 mmHg 84%
06:00 +1°C° 0 mm 5 mps 744 mmHg 81%
07:00 +2°C° 0 mm 5 mps 744 mmHg 78%
08:00 +3°C° 0 mm 5 mps 744 mmHg 69%
09:00 +5°C° 0 mm 6 mps 745 mmHg 59%
10:00 +7°C° 0 mm 6 mps 745 mmHg 49%
11:00 +8°C° 0 mm 5 mps 745 mmHg 45%
12:00 +9°C° 0 mm 5 mps 745 mmHg 41%
13:00 +10°C° 0 mm 5 mps 744 mmHg 38%
14:00 +10°C° 0 mm 5 mps 744 mmHg 37%
15:00 +11°C° 0 mm 4 mps 744 mmHg 36%
16:00 +11°C° 0 mm 4 mps 744 mmHg 36%
17:00 +10°C° 0 mm 3 mps 744 mmHg 42%
18:00 +10°C° 0 mm 3 mps 743 mmHg 47%
19:00 +9°C° 0 mm 2 mps 743 mmHg 53%
20:00 +8°C° 0 mm 2 mps 742 mmHg 56%
21:00 +7°C° 0 mm 2 mps 742 mmHg 60%
22:00 +6°C° 0 mm 2 mps 742 mmHg 63%
23:00 +7°C° 0 mm 1 mps 741 mmHg 66%

27 April, Tuesday

Time Temperature Precipitation Wind Pressure Humidity
00:00 +7°C° 0 mm 1 mps 741 mmHg 69%
01:00 +6°C° 0 mm 1 mps 740 mmHg 72%
02:00 +6°C° 0 mm 1 mps 740 mmHg 72%
03:00 +6°C° 0 mm 1 mps 739 mmHg 73%
04:00 +5°C° 0 mm 2 mps 738 mmHg 74%
05:00 +5°C° 0 mm 2 mps 738 mmHg 73%
06:00 +6°C° 0 mm 2 mps 738 mmHg 72%
07:00 +6°C° 0 mm 2 mps 738 mmHg 72%
08:00 +6°C° 0 mm 2 mps 738 mmHg 72%
09:00 +7°C° 0 mm 2 mps 737 mmHg 73%
10:00 +7°C° 0 mm 2 mps 737 mmHg 73%
11:00 +8°C° 0 mm 2 mps 737 mmHg 71%
12:00 +10°C° 0 mm 1 mps 737 mmHg 68%
13:00 +11°C° 0 mm 1 mps 737 mmHg 65%
14:00 +11°C° 0 mm 1 mps 737 mmHg 59%
15:00 +12°C° 0 mm 1 mps 736 mmHg 54%
16:00 +13°C° 0 mm 2 mps 736 mmHg 48%
17:00 +13°C° 0 mm 2 mps 736 mmHg 51%
18:00 +12°C° 0 mm 2 mps 736 mmHg 55%
19:00 +12°C° 0 mm 2 mps 736 mmHg 59%
20:00 +10°C° 0 mm 3 mps 736 mmHg 64%
21:00 +7°C° 0 mm 4 mps 737 mmHg 70%
22:00 +6°C° 0 mm 5 mps 737 mmHg 75%
23:00 +6°C° 0 mm 5 mps 737 mmHg 75%

28 April, Wednesday

Time Temperature Precipitation Wind Pressure Humidity
00:00 +5°C° 0 mm 4 mps 737 mmHg 74%
01:00 +4°C° 0 mm 4 mps 737 mmHg 74%
02:00 +4°C° 0 mm 4 mps 737 mmHg 74%
03:00 +3°C° 0 mm 4 mps 737 mmHg 75%
04:00 +3°C° 0 mm 3 mps 737 mmHg 75%
05:00 +3°C° 0 mm 4 mps 738 mmHg 73%
06:00 +3°C° 0 mm 6 mps 738 mmHg 72%
07:00 +3°C° 0 mm 7 mps 738 mmHg 70%
08:00 +3°C° 0.1 mm 7 mps 738 mmHg 67%
09:00 +4°C° 0.1 mm 6 mps 739 mmHg 65%
10:00 +5°C° 0.1 mm 6 mps 739 mmHg 63%
11:00 +5°C° 0.2 mm 7 mps 740 mmHg 56%
12:00 +6°C° 0.2 mm 7 mps 740 mmHg 50%
13:00 +7°C° 0.2 mm 8 mps 740 mmHg 43%
14:00 +9°C° 0.1 mm 8 mps 740 mmHg 42%
15:00 +9°C° 0.1 mm 8 mps 740 mmHg 41%
16:00 +9°C° 0.1 mm 8 mps 741 mmHg 40%
17:00 +7°C° 0 mm 8 mps 741 mmHg 42%
18:00 +8°C° 0 mm 7 mps 741 mmHg 44%
19:00 +6°C° 0 mm 7 mps 742 mmHg 46%
20:00 +5°C° 0 mm 6 mps 742 mmHg 48%
21:00 +4°C° 0 mm 6 mps 743 mmHg 51%
22:00 +5°C° 0 mm 5 mps 743 mmHg 53%
23:00 +3°C° 0 mm 5 mps 744 mmHg 56%
Show more